Wind_Speed
20 20 20 20 20 20 19 17 16 15 15 15 15 15 15 14 14 14 14 14 14 14 14 14 14 14 14 14 14 15 15 15 15 14 13 13 12 12 11 10 10 9 9 9 9 8 8 8 8
21 21 21 22 22 21 19 17 17 16 17 16 16 17 17 16 15 15 15 15 15 15 15 16 16 15 15 15 15 15 16 16 16 16 15 15 14 13 13 12 12 11 11 11 10 10 9 9 9
21 21 22 22 22 21 20 18 18 17 18 17 18 18 18 17 16 17 17 17 17 17 17 17 17 17 16 16 16 16 16 17 17 17 17 16 16 15 15 14 14 13 13 13 12 12 11 11 10
21 22 23 23 22 21 21 20 20 19 19 19 19 19 18 18 19 18 18 18 18 18 18 18 18 17 17 17 17 17 17 17 17 18 18 18 18 17 17 16 15 15 15 15 14 13 13 12 12
21 22 23 23 22 22 23 23 21 21 20 20 20 19 19 20 20 20 19 19 19 19 20 19 19 19 19 19 19 18 19 19 18 18 19 19 19 19 18 18 17 17 16 16 16 15 15 14 14
22 22 23 22 22 23 24 24 22 22 22 21 21 21 20 20 20 20 21 20 21 21 21 21 21 21 20 20 21 20 20 20 20 20 20 20 20 20 20 20 19 18 18 18 18 17 17 16 16
23 23 23 23 23 23 23 24 23 23 23 23 23 22 22 21 21 22 22 22 22 22 22 22 22 22 22 22 22 23 22 22 22 21 21 20 20 21 21 21 20 20 19 19 19 19 18 18 17
24 24 24 23 23 23 24 25 24 24 24 24 24 24 23 23 23 23 24 23 23 24 24 24 24 24 24 24 24 24 24 24 24 23 22 22 22 22 22 22 21 21 21 21 21 20 20 19 19
25 25 24 23 23 24 25 26 26 25 25 25 26 26 26 25 25 25 25 25 25 25 25 25 25 26 26 26 26 26 25 25 25 25 24 24 24 24 24 24 23 23 23 23 23 22 22 22 21
26 26 25 25 25 26 27 28 27 26 26 26 26 26 27 27 27 27 27 26 26 26 26 27 27 27 27 27 27 27 27 27 27 28 27 26 26 26 26 26 25 25 25 25 24 24 24 24 23
27 27 26 27 27 28 28 29 28 28 28 27 28 28 28 28 28 28 29 29 28 28 28 28 28 28 28 28 28 29 29 29 29 30 29 29 29 28 28 28 28 27 27 27 27 27 26 26 26
29 28 28 28 29 29 29 30 30 30 29 29 29 30 30 30 30 30 31 31 31 30 30 30 30 30 30 30 30 31 31 31 31 32 31 31 31 30 30 30 30 30 29 29 29 29 29 28 28
30 30 30 30 30 31 31 31 31 31 31 31 31 31 32 32 32 32 32 32 32 32 32 32 32 32 32 32 32 33 33 33 33 33 33 33 32 31 32 32 32 32 32 32 32 31 31 31 30
31 31 32 32 32 32 32 32 32 32 33 33 33 34 34 34 34 34 33 33 33 33 34 34 34 34 34 34 34 35 35 35 35 35 35 35 35 34 34 34 34 34 34 34 34 34 33 33 33
32 32 32 32 33 33 33 33 33 33 34 35 35 35 35 35 35 35 35 35 35 35 35 35 36 37 37 37 37 37 37 37 37 37 37 37 37 37 36 35 36 36 36 36 36 35 35 35 34
33 34 34 33 34 34 35 34 35 35 36 36 37 37 37 37 37 37 37 37 38 38 38 37 38 38 38 39 38 39 38 39 39 39 39 39 39 39 39 38 38 38 38 37 38 37 36 36 35
35 35 35 35 36 36 37 36 36 37 38 38 39 39 39 39 39 39 39 40 40 40 40 40 40 40 40 40 40 40 40 41 41 40 40 40 40 40 40 40 40 40 39 39 39 38 37 37 36
36 37 37 38 38 38 39 38 38 39 40 40 41 41 41 40 41 41 41 41 42 42 42 42 42 42 42 41 41 42 42 42 42 42 41 41 42 42 42 42 42 42 41 41 41 40 38 37 36
38 39 39 39 39 40 41 41 40 41 41 41 42 42 42 42 42 43 43 44 44 44 44 44 44 43 43 43 43 43 43 43 43 43 43 43 44 44 44 43 42 42 41 41 40 40 39 37 37
39 39 39 40 40 41 42 42 42 43 42 42 43 43 44 44 44 45 45 46 46 46 46 46 45 45 45 45 45 45 45 45 45 44 44 44 44 44 45 44 43 43 42 41 40 40 39 38 38
40 40 40 40 41 42 43 43 42 42 43 43 43 44 45 45 46 46 46 47 47 47 47 47 46 46 47 47 47 47 47 47 46 46 45 45 45 44 45 45 45 44 43 42 41 40 40 40 40
40 40 40 41 41 42 42 44 41 41 41 42 43 44 45 46 47 47 48 48 49 49 48 48 48 48 48 48 48 48 48 48 48 47 47 46 46 46 46 47 46 45 44 43 42 42 42 42 42
39 39 39 40 41 42 41 44 41 40 40 40 41 42 43 45 45 47 47 48 49 49 49 49 49 49 49 49 48 48 48 49 49 48 48 48 48 48 47 47 47 46 46 45 45 44 44 44 44
38 38 39 40 40 42 40 42 42 39 39 39 40 41 42 43 43 44 45 46 48 48 49 49 49 50 50 49 49 49 49 49 49 48 48 48 48 49 48 48 48 47 47 46 47 46 46 46 45
37 37 38 40 40 41 40 41 41 39 39 39 39 40 41 41 42 43 44 45 46 47 48 49 49 49 50 50 50 50 50 50 50 49 49 49 49 49 49 49 48 48 47 48 48 47 47 47 46
36 37 38 40 41 41 40 40 39 38 38 38 39 39 40 41 41 43 43 44 45 46 47 48 49 49 50 50 51 51 52 52 51 51 51 50 50 51 51 50 49 49 49 49 49 49 48 48 47
36 37 38 39 41 42 41 40 38 37 37 37 38 39 39 40 41 42 43 43 44 45 46 47 49 50 50 51 51 52 52 52 52 51 51 51 51 51 52 51 50 50 50 49 49 50 49 49 49
35 35 36 37 39 41 41 40 38 37 37 38 38 39 40 40 41 42 42 43 44 45 47 47 48 49 50 51 51 52 53 53 53 52 52 52 52 52 52 52 52 51 51 50 50 50 50 49 49
33 34 34 36 37 39 41 39 37 37 38 39 39 39 39 40 41 41 42 43 44 45 46 46 47 48 49 50 51 52 53 53 54 53 53 53 53 52 52 53 52 52 52 51 51 51 51 50 50
33 33 33 35 36 38 40 38 36 37 38 38 38 38 39 39 40 41 42 43 43 44 45 45 46 47 48 49 50 51 52 53 53 53 53 54 54 54 54 54 53 53 53 52 52 52 52 51 51
Wind_Direction
244 242 241 242 242 243 246 247 248 245 245 247 249 250 252 254 256 257 256 255 254 252 254 256 256 254 254 257 259 260 260 258 256 256 257 257 257 258 260 264 261 259 258 257 255 255 253 251 251
245 243 242 243 243 243 245 245 244 245 247 248 250 252 253 254 255 256 257 256 257 256 256 257 257 257 257 257 259 260 258 256 254 253 253 253 254 255 256 259 260 258 257 257 255 254 254 254 251
245 243 243 244 245 244 244 245 245 246 248 248 250 252 255 256 255 255 256 257 257 259 259 258 258 259 259 258 259 260 258 255 254 253 252 252 252 253 254 257 259 257 256 257 256 255 253 254 251
245 244 245 246 247 246 246 245 246 247 248 248 249 251 254 256 257 257 257 258 259 260 259 257 258 259 260 259 258 259 258 256 256 254 254 252 252 252 253 255 258 256 254 255 255 254 253 252 253
246 246 247 249 249 248 247 248 248 249 249 249 251 252 254 255 256 257 258 259 259 260 259 258 258 259 260 260 260 259 258 258 258 257 257 255 253 251 252 253 256 256 254 254 255 255 253 253 253
248 249 250 251 250 248 248 249 249 249 249 249 250 252 253 255 257 258 259 260 260 260 261 260 259 259 260 261 260 260 259 258 258 258 258 258 255 252 253 254 256 255 253 253 253 254 254 254 254
250 251 251 250 250 250 250 250 250 249 251 251 251 252 253 255 257 259 260 260 261 261 260 261 261 260 260 260 260 260 258 258 258 258 258 258 256 253 253 254 256 255 253 253 254 254 254 254 255
251 252 252 252 252 253 252 252 252 251 251 252 253 252 254 256 258 260 262 261 261 261 261 260 261 261 261 260 260 259 258 258 258 259 259 258 256 255 254 254 256 256 253 253 254 254 254 254 255
251 252 253 253 254 254 253 252 252 252 252 253 254 254 255 257 259 260 261 261 261 261 261 261 262 262 262 261 260 260 259 259 258 259 259 258 257 255 254 253 255 256 253 253 253 254 255 255 255
253 254 254 254 254 253 253 253 254 254 253 254 255 256 257 257 259 260 260 260 261 261 262 263 263 262 262 262 261 260 259 258 259 259 260 258 257 256 254 253 254 255 254 253 254 254 254 256 255
255 255 256 255 254 254 254 254 255 256 254 254 255 257 258 259 259 260 260 260 261 262 263 263 263 262 261 261 261 260 259 259 259 258 258 258 257 257 256 255 253 254 254 254 254 254 255 256 255
256 256 256 255 254 254 254 255 256 256 256 256 256 258 259 260 260 260 260 261 261 262 263 263 262 262 262 261 261 261 260 259 258 258 258 258 258 258 257 256 253 254 254 255 255 255 255 256 255
257 257 256 255 255 255 255 255 256 256 257 257 258 259 260 261 261 261 260 261 261 261 262 262 262 262 262 261 261 262 261 260 258 258 257 258 258 257 257 256 254 254 255 255 255 256 257 257 256
257 257 257 256 257 257 256 256 256 257 258 258 258 259 260 261 262 261 261 261 262 262 262 262 261 261 261 261 262 261 261 261 259 257 257 257 257 256 257 257 257 256 256 256 256 257 258 258 257
257 257 256 257 257 257 257 256 257 258 258 259 259 260 261 262 262 262 261 261 261 262 262 262 261 260 260 261 261 260 260 260 259 258 257 256 256 256 257 257 258 257 257 257 257 257 258 258 258
258 258 258 258 258 258 258 258 258 259 259 259 260 261 261 262 262 261 261 261 261 261 262 262 262 260 260 260 260 260 260 259 259 258 257 256 256 256 257 258 258 258 258 258 259 259 257 257 257
259 260 260 260 259 259 259 259 260 260 261 261 261 261 261 261 261 261 260 260 261 262 262 262 262 261 260 260 260 260 260 260 260 259 258 258 257 256 257 257 259 259 259 259 259 258 257 256 256
262 262 262 261 261 261 261 261 261 261 261 261 262 262 262 262 262 261 261 261 261 261 261 261 262 261 260 260 260 259 259 259 260 259 259 258 257 257 257 258 259 260 260 259 258 258 257 256 256
263 263 263 262 262 262 261 261 261 261 262 262 262 262 262 262 262 261 261 261 261 262 261 261 261 262 261 260 260 259 259 258 258 259 259 259 258 257 258 258 259 259 259 258 258 258 257 255 254
263 264 264 264 264 264 263 262 262 262 262 262 261 261 261 261 261 261 260 260 261 261 262 261 261 262 261 260 260 259 258 258 258 259 259 260 260 259 259 259 259 259 259 258 258 257 256 255 254
264 264 265 265 264 265 265 264 263 263 263 263 262 261 261 261 262 261 261 261 261 261 261 261 261 261 260 260 260 259 258 257 258 258 259 259 259 259 259 258 257 258 258 257 256 256 256 255 254
265 264 265 265 265 266 266 267 264 265 265 264 264 263 263 263 262 262 261 261 262 262 262 261 261 261 260 260 260 260 258 257 257 257 258 259 259 259 258 257 256 256 256 256 255 256 256 255 254
265 264 265 265 265 266 266 268 266 266 266 266 266 265 264 264 263 263 262 262 262 262 262 261 261 261 260 259 260 259 258 257 257 257 258 259 259 258 258 256 256 255 255 255 255 255 256 255 253
266 266 265 265 265 266 267 268 268 267 268 267 267 267 266 265 264 264 263 263 263 262 262 261 261 261 260 259 259 259 258 257 257 257 258 258 258 257 257 255 255 255 255 255 254 255 256 255 254
265 266 267 266 266 267 268 268 270 270 269 269 269 268 267 267 266 265 265 264 264 263 263 262 261 261 260 258 258 258 257 257 257 257 258 258 257 256 256 255 254 255 256 255 255 254 255 255 254
265 265 266 267 268 268 268 269 270 271 271 270 269 268 268 268 268 268 267 266 266 265 264 263 261 261 260 258 258 258 258 257 257 257 258 257 257 256 255 255 254 254 255 255 255 254 254 254 254
266 265 266 268 269 270 269 269 270 270 270 270 269 270 270 270 269 269 269 268 267 267 266 264 263 261 260 259 258 258 257 257 257 257 257 257 256 255 254 254 254 254 255 255 255 254 254 253 254
266 267 267 267 269 271 270 271 272 272 271 270 270 270 271 271 270 271 270 269 269 268 268 266 264 263 261 260 259 258 258 257 256 257 256 257 256 255 254 253 254 254 255 255 254 254 254 253 254
266 266 267 268 268 270 272 272 274 274 273 273 273 273 273 272 271 271 271 271 271 270 269 267 266 265 263 262 260 259 258 257 257 257 256 256 255 255 253 253 253 254 255 255 254 254 254 254 254
264 265 266 267 268 269 272 275 275 275 275 275 275 274 273 273 274 273 273 273 272 271 270 268 266 266 265 263 262 261 259 258 258 257 256 256 255 254 254 253 253 253 254 254 254 254 254 254 255
Height
5821 5823 5824 5826 5827 5827 5828 5830 5830 5831 5831 5832 5832 5833 5834 5835 5836 5839 5837 5836 5837 5837 5838 5838 5838 5839 5839 5840 5840 5840 5840 5841 5842 5842 5842 5843 5843 5843 5844 5844 5844 5844 5844 5845 5845 5845 5845 5845 5845
5817 5819 5821 5821 5822 5823 5825 5826 5827 5828 5828 5829 5829 5830 5831 5831 5832 5833 5833 5833 5834 5834 5835 5835 5835 5836 5836 5836 5837 5837 5837 5838 5838 5839 5840 5840 5841 5841 5841 5842 5842 5842 5843 5843 5843 5843 5843 5843 5843
5813 5815 5816 5817 5817 5819 5821 5822 5823 5824 5825 5825 5826 5826 5827 5828 5828 5829 5829 5830 5830 5831 5831 5831 5832 5832 5833 5833 5833 5833 5834 5834 5835 5836 5836 5837 5838 5838 5839 5839 5840 5840 5840 5841 5841 5841 5841 5841 5842
5809 5811 5812 5813 5814 5816 5817 5818 5819 5820 5821 5821 5822 5823 5824 5824 5825 5825 5826 5826 5826 5827 5827 5827 5828 5828 5829 5829 5830 5830 5830 5831 5831 5832 5833 5834 5835 5835 5836 5836 5837 5837 5838 5838 5838 5839 5839 5839 5840
5805 5806 5807 5808 5810 5811 5812 5813 5814 5816 5817 5817 5818 5818 5819 5820 5820 5821 5822 5822 5822 5823 5823 5823 5824 5824 5825 5825 5826 5826 5827 5827 5828 5828 5829 5830 5831 5832 5832 5833 5834 5834 5835 5835 5835 5836 5836 5837 5837
5801 5802 5803 5804 5805 5806 5807 5808 5809 5811 5812 5813 5814 5814 5815 5815 5816 5816 5817 5817 5818 5818 5818 5819 5819 5820 5820 5821 5821 5822 5823 5823 5824 5825 5825 5826 5827 5828 5829 5829 5830 5830 5831 5832 5832 5832 5833 5833 5834
5797 5797 5798 5799 5800 5801 5803 5803 5804 5806 5807 5808 5809 5809 5810 5811 5811 5811 5812 5812 5813 5813 5814 5814 5814 5815 5816 5816 5817 5817 5818 5819 5820 5820 5821 5822 5822 5823 5824 5825 5826 5826 5827 5828 5828 5829 5829 5830 5830
5791 5793 5793 5794 5796 5797 5798 5798 5799 5800 5801 5802 5803 5804 5805 5806 5806 5806 5806 5807 5807 5808 5808 5809 5809 5810 5810 5811 5811 5812 5813 5814 5815 5815 5816 5817 5818 5819 5820 5820 5821 5822 5822 5823 5824 5825 5825 5826 5826
5785 5787 5788 5789 5790 5792 5792 5792 5793 5794 5795 5796 5797 5799 5800 5800 5800 5801 5801 5801 5802 5802 5803 5804 5804 5804 5805 5805 5806 5807 5807 5808 5809 5810 5811 5812 5813 5814 5815 5815 5816 5817 5818 5818 5819 5820 5820 5821 5822
5779 5781 5783 5784 5784 5785 5785 5786 5787 5788 5789 5790 5791 5792 5793 5793 5794 5794 5795 5795 5796 5796 5797 5797 5798 5798 5799 5799 5800 5800 5801 5802 5803 5804 5805 5807 5807 5808 5809 5810 5811 5811 5812 5813 5814 5815 5815 5816 5817
5773 5774 5776 5776 5777 5778 5778 5779 5780 5781 5782 5784 5785 5786 5786 5787 5787 5788 5788 5789 5790 5790 5790 5791 5791 5792 5792 5793 5793 5794 5795 5796 5797 5798 5799 5800 5801 5802 5803 5804 5804 5805 5806 5807 5808 5809 5809 5810 5811
5766 5767 5768 5769 5769 5770 5771 5772 5773 5774 5776 5776 5777 5778 5779 5779 5780 5781 5781 5782 5783 5783 5784 5784 5784 5785 5785 5786 5787 5787 5788 5789 5790 5791 5792 5793 5794 5795 5796 5797 5798 5798 5799 5800 5801 5802 5802 5803 5804
5758 5759 5760 5761 5762 5763 5764 5765 5766 5766 5767 5768 5769 5770 5771 5771 5772 5772 5773 5774 5775 5775 5776 5776 5777 5777 5778 5778 5779 5780 5780 5781 5782 5783 5784 5785 5787 5788 5789 5789 5790 5791 5792 5793 5793 5794 5795 5796 5797
5750 5751 5752 5753 5754 5755 5756 5757 5757 5758 5759 5760 5761 5762 5763 5763 5764 5764 5765 5766 5766 5767 5767 5767 5768 5769 5769 5770 5771 5771 5772 5772 5773 5774 5775 5776 5778 5779 5780 5781 5782 5783 5783 5784 5785 5786 5787 5788 5789
5742 5743 5744 5745 5745 5746 5747 5748 5749 5750 5750 5751 5752 5753 5754 5754 5755 5755 5756 5757 5757 5758 5758 5759 5759 5760 5760 5761 5762 5762 5763 5763 5764 5765 5766 5767 5769 5770 5771 5772 5773 5774 5774 5775 5776 5777 5778 5778 5779
5733 5734 5735 5736 5736 5737 5739 5740 5740 5740 5741 5742 5742 5743 5744 5745 5745 5746 5747 5747 5748 5748 5749 5749 5750 5750 5751 5751 5752 5753 5753 5754 5755 5755 5756 5758 5759 5760 5762 5763 5764 5764 5765 5766 5766 5767 5768 5769 5770
5723 5724 5726 5727 5727 5727 5728 5730 5731 5730 5731 5732 5732 5733 5734 5734 5735 5736 5736 5737 5738 5738 5739 5739 5740 5740 5741 5741 5742 5742 5743 5743 5744 5746 5747 5748 5749 5750 5752 5753 5754 5754 5755 5756 5756 5757 5758 5759 5760
5714 5715 5715 5716 5716 5717 5718 5719 5720 5719 5720 5721 5722 5723 5723 5724 5724 5725 5725 5726 5727 5728 5728 5729 5729 5729 5730 5730 5731 5732 5732 5733 5734 5735 5736 5737 5739 5740 5741 5743 5743 5744 5745 5745 5746 5747 5748 5749 5750
5703 5703 5704 5705 5705 5705 5706 5707 5708 5708 5709 5710 5710 5711 5712 5712 5713 5713 5714 5714 5715 5716 5716 5717 5718 5718 5718 5719 5720 5721 5721 5722 5723 5724 5726 5727 5727 5728 5730 5731 5732 5733 5734 5735 5736 5737 5738 5739 5739
5691 5692 5692 5693 5693 5693 5693 5695 5696 5696 5697 5698 5698 5699 5699 5700 5701 5701 5702 5702 5703 5703 5704 5705 5705 5706 5706 5707 5708 5708 5709 5711 5712 5713 5714 5715 5715 5717 5718 5720 5721 5722 5723 5724 5725 5726 5727 5728 5729
5679 5680 5681 5681 5680 5680 5680 5682 5684 5684 5684 5685 5685 5686 5686 5687 5688 5688 5689 5689 5690 5690 5691 5691 5692 5693 5694 5694 5695 5696 5697 5698 5700 5701 5702 5703 5704 5705 5706 5708 5710 5711 5712 5714 5715 5716 5717 5718 5719
5668 5668 5668 5668 5667 5668 5668 5668 5673 5672 5671 5672 5672 5673 5673 5674 5674 5674 5675 5675 5676 5676 5677 5678 5679 5680 5680 5681 5681 5682 5684 5685 5687 5688 5690 5691 5692 5693 5694 5696 5698 5699 5701 5702 5704 5705 5706 5708 5709
5656 5656 5656 5656 5655 5656 5657 5655 5660 5659 5659 5660 5660 5660 5660 5660 5660 5660 5661 5661 5661 5662 5663 5664 5664 5665 5666 5667 5668 5668 5669 5671 5673 5675 5676 5678 5679 5680 5681 5683 5685 5687 5689 5690 5692 5694 5695 5696 5698
5645 5645 5645 5644 5643 5644 5646 5644 5646 5648 5648 5648 5648 5647 5647 5647 5647 5647 5647 5647 5647 5648 5648 5649 5650 5651 5651 5653 5654 5655 5656 5658 5660 5661 5663 5664 5665 5667 5668 5670 5672 5674 5676 5678 5680 5682 5683 5685 5686
5635 5634 5633 5632 5632 5633 5634 5633 5635 5636 5636 5636 5636 5635 5635 5634 5634 5634 5634 5634 5634 5633 5634 5634 5635 5636 5637 5638 5639 5640 5642 5644 5646 5648 5650 5651 5652 5654 5656 5658 5659 5661 5663 5665 5667 5669 5671 5672 5674
5624 5624 5624 5622 5622 5622 5622 5622 5624 5624 5624 5623 5624 5623 5623 5622 5622 5621 5621 5621 5620 5620 5620 5620 5620 5621 5622 5623 5625 5626 5627 5629 5631 5633 5635 5637 5639 5640 5642 5644 5646 5648 5650 5652 5654 5656 5658 5660 5662
5613 5613 5613 5612 5610 5610 5610 5611 5613 5613 5612 5612 5612 5612 5611 5610 5610 5609 5608 5607 5607 5606 5606 5606 5606 5606 5607 5608 5610 5611 5612 5614 5616 5618 5620 5622 5624 5626 5628 5630 5633 5635 5637 5639 5641 5643 5645 5647 5649
5603 5602 5602 5600 5599 5598 5599 5601 5602 5602 5601 5601 5600 5600 5599 5598 5597 5596 5595 5594 5593 5592 5592 5591 5591 5591 5592 5593 5594 5596 5597 5599 5601 5603 5605 5607 5609 5611 5614 5616 5619 5621 5623 5625 5628 5630 5632 5635 5637
5593 5592 5591 5590 5589 5589 5588 5592 5591 5591 5590 5589 5589 5588 5587 5586 5585 5583 5582 5581 5579 5578 5577 5577 5576 5576 5576 5577 5578 5580 5582 5583 5585 5587 5590 5592 5594 5596 5599 5602 5604 5607 5609 5612 5614 5617 5619 5622 5624
5582 5582 5581 5581 5580 5579 5578 5583 5581 5580 5578 5578 5577 5576 5574 5573 5572 5570 5569 5567 5565 5564 5563 5562 5562 5562 5562 5562 5563 5564 5566 5567 5569 5571 5574 5576 5578 5581 5584 5586 5589 5592 5595 5597 5600 5603 5605 5608 5611